This demonstration page uses our WeatherBlox Daily Observations layout. Learn more.

Left ArrowRight Arrow

Hourly Observations for July 18, 2020

Temp ( °F °C ) Dew Point ( °F °C ) Humidity (%) Winds ( mph kmh ) Pressure ( in mb ) Visibility ( mi km ) Precip ( " mm )
12:54 am 00:54 Clear 82 27.8 74 23.3 77 77 S 14 22 29.81 1009 10 16.0934 0 0
1:54 am 01:54 Partly Cloudy 81 27.2 73 22.8 77 77 S 12 19 29.79 1009 10 16.0934 0 0
2:54 am 02:54 Partly Cloudy 83 28.3 72 22.2 70 70 S 16 26 29.78 1008 10 16.0934 0 0
3:54 am 03:54 Clear 82 27.8 72 22.2 72 72 S 13 20 29.76 1008 10 16.0934 0 0
4:54 am 04:54 Clear 83 28.3 70 21.1 65 65 S 15 24 29.75 1007 10 16.0934 0 0
5:54 am 05:54 Clear 83 28.3 68 20 61 61 SSW 16 26 29.74 1007 10 16.0934 0 0
6:54 am 06:54 Sunny 82 27.8 68 20 63 63 SSW 17 28 29.74 1007 9 14.48406 0 0
7:54 am 07:54 Sunny 82 27.8 69 20.6 65 65 S 16 26 29.74 1007 9 14.48406 0 0
8:54 am 08:54 Sunny 84 28.9 70 21.1 63 63 SSW 16 26 29.75 1007 9 14.48406 0 0
9:54 am 09:54 Sunny 87 30.6 70 21.1 57 57 SSW 16 26 29.75 1007 9 14.48406 0 0
10:54 am 10:54 Sunny 89 31.7 70 21.1 53 53 SSW 18 30 29.75 1007 9 14.48406 0 0
11:54 am 11:54 Sunny 91 32.8 70 21.1 50 50 SSW 22 35 29.73 1007 9 14.48406 0 0
12:54 pm 12:54 Sunny 93 33.9 71 21.7 49 49 SSW 21 33 29.72 1007 9 14.48406 0 0
1:54 pm 13:54 Sunny 94 34.4 71 21.7 48 48 SSW 22 35 29.72 1007 9 14.48406 0 0
2:54 pm 14:54 Sunny 96 35.6 73 22.8 47 47 SSW 17 28 29.71 1006 9 14.48406 0 0
3:54 pm 15:54 Sunny 95 35 74 23.3 51 51 SSW 18 30 29.72 1006 9 14.48406 0 0
4:54 pm 16:54 Sunny 95 35 74 23.3 51 51 S 17 28 29.73 1007 9 14.48406 0 0
5:54 pm 17:54 Sunny 95 35 74 23.3 51 51 SSW 14 22 29.73 1007 9 14.48406 0 0
6:54 pm 18:54 Sunny 93 33.9 75 23.9 56 56 SSW 10 17 29.74 1007 9 14.48406 0 0
7:54 pm 19:54 Sunny 90 32.2 75 23.9 62 62 S 7 11 29.75 1007 9 14.48406 0 0
8:54 pm 20:54 Sunny 88 31.1 75 23.9 66 66 SSW 6 9 29.75 1007 9 14.48406 0 0
9:54 pm 21:54 Clear 83 28.3 71 21.7 67 67 NNW 14 22 29.79 1009 10 16.0934 0 0
10:54 pm 22:54 Clear 80 26.7 71 21.7 74 74 N 10 17 29.83 1010 10 16.0934 0 0
11:54 pm 23:54 Clear 80 26.7 72 22.2 76 76 NNW 8 13 29.84 1011 10 16.0934 0 0

Powered by AerisWeather